DateTimeUTC,F1_A11,F1_S11,BsB_S11,BsG_S11,BsR_S11,BbsB_S11,BbsG_S11,BbsR_S11,BaB_A11,BaG_A11,BaR_A11,Tu_S11,T_S11,Uu_S11,U_S11,P_S11,T1_A11
2021-01-19T14:00:00Z,00000200,21000000,,,,,,,0000.14,-000.12,-000.19,14.8,22.4,,00.0,0647.9,30.7
2021-01-19T14:01:00Z,00000200,21000000,,,,,,,-000.06,-000.06,0000.04,14.7,22.4,,00.0,0647.9,30.7
2021-01-19T14:02:00Z,00000200,21000000,,,,,,,-000.19,0000.42,0000.58,14.7,22.4,,00.0,0647.9,30.6
2021-01-19T14:03:00Z,00000200,61000000,,,,,,,0000.38,0000.43,-000.08,14.7,22.4,,00.0,0647.9,30.6
2021-01-19T14:04:00Z,00000200,41000000,0000.69,0000.09,-000.07,-000.26,0000.08,-000.17,0000.30,-000.04,0000.23,15.0,22.1,,00.0,0648.8,30.7
2021-01-19T14:05:00Z,00000200,01000000,0000.63,-000.04,0000.14,0000.10,-000.04,0000.24,0000.09,-000.04,-000.12,15.1,22.1,,00.0,0648.9,30.7
2021-01-19T14:06:00Z,00000200,01000000,0000.75,0000.30,0000.23,-000.09,-000.09,-000.20,0000.20,0000.14,0000.10,15.2,22.1,,00.0,0648.9,30.7
2021-01-19T14:07:00Z,00000200,01000000,0000.54,0000.04,0000.14,0000.53,0000.14,-000.14,-000.14,0000.39,-000.08,15.3,22.1,,00.0,0648.9,30.7
2021-01-19T14:08:00Z,00000200,01000000,0000.54,0000.13,0000.18,0000.39,0000.09,0000.01,0000.23,-000.34,0000.21,15.4,22.1,,00.0,0648.9,30.7
2021-01-19T14:09:00Z,00000200,01000000,0000.61,0000.30,0000.15,0000.38,0000.12,0000.32,-000.11,0000.09,0000.02,15.4,22.2,,00.0,0648.9,30.7
2021-01-19T14:10:00Z,00000200,01000000,0001.09,0000.02,0000.08,0000.06,0000.26,0000.01,-000.24,0000.14,0000.37,15.5,22.2,,00.0,0648.9,30.7
2021-01-19T14:11:00Z,00000200,01000000,0000.97,-000.02,0000.01,0000.48,-000.06,0000.03,0000.38,0000.25,-000.43,15.6,22.3,,00.0,0648.9,30.7
2021-01-19T14:12:00Z,00000200,01000000,0000.58,0000.14,-000.24,0000.31,0000.00,0000.04,0000.24,-000.29,0000.19,15.7,22.3,,00.0,0648.9,30.7
2021-01-19T14:13:00Z,00000200,01000000,0000.34,0000.08,-000.03,0000.26,-000.06,-000.10,-000.10,0000.29,0000.11,15.7,22.3,,00.0,0648.9,30.8
2021-01-19T14:14:00Z,00000200,01000000,0000.47,-000.18,-000.23,0000.12,-000.10,0000.14,-000.12,0000.11,0000.14,15.8,22.3,,00.0,0649.0,30.8
2021-01-19T14:15:00Z,00000200,01000000,0000.10,0000.42,0000.07,0000.17,0000.09,0000.12,0000.04,-000.24,-000.15,15.8,22.4,,00.0,0649.0,30.8
2021-01-19T14:16:00Z,00000200,01000000,0001.04,0000.09,0000.07,-000.29,-000.02,-000.11,0000.04,0000.05,-000.01,15.9,22.4,,00.0,0649.0,30.8
2021-01-19T14:17:00Z,00000200,01000000,0000.01,0000.10,0000.21,0000.09,0000.18,0000.26,-000.01,0000.09,0000.12,16.0,22.5,,00.0,0649.0,30.8
2021-01-19T14:18:00Z,00000200,01000000,-000.11,0000.15,0000.03,0000.03,-000.24,0000.05,-000.19,-000.07,-000.01,16.0,22.5,,00.0,0649.0,30.8
2021-01-19T14:19:00Z,00000200,01000000,0000.19,0000.19,0000.10,-000.14,-000.15,0000.08,0000.68,0000.56,0000.21,16.1,22.5,,00.0,0649.0,30.8
2021-01-19T14:20:00Z,00000200,01000000,0000.01,0000.11,0000.02,0000.20,-000.19,-000.03,-000.13,-000.02,-000.02,16.1,22.5,,00.0,0649.0,30.8
2021-01-19T14:21:00Z,00000200,01000000,0000.12,0000.41,0000.00,0000.01,0000.01,-000.02,0000.13,-000.06,-000.13,16.2,22.6,,00.0,0649.0,30.8
2021-01-19T14:22:00Z,00000200,01000000,0000.19,0000.14,-000.02,0000.09,-000.00,0000.20,-000.18,-000.02,0000.15,16.3,22.6,,00.0,0649.0,30.8
2021-01-19T14:23:00Z,00000200,01000000,0000.20,0000.04,0000.13,-000.09,-000.24,-000.16,0000.11,0000.23,-000.03,16.4,22.7,,00.0,0649.0,30.8
2021-01-19T14:24:00Z,00000200,01000000,0000.52,0000.14,0000.27,-000.43,0000.08,0000.18,0000.14,-000.15,-000.13,16.4,22.8,,00.0,0649.0,30.8
2021-01-19T14:25:00Z,00000200,01000000,-000.37,0000.08,-000.05,0000.74,0000.09,-000.12,-000.15,0000.29,0000.55,16.5,22.8,,00.0,0649.1,30.8
2021-01-19T14:26:00Z,00000200,01000000,0000.04,0000.20,0000.11,0000.20,0000.16,0000.19,0000.22,-000.19,0000.03,16.6,22.9,,00.0,0649.0,30.8
2021-01-19T14:27:00Z,00000200,01000000,0000.19,0000.17,-000.19,0000.47,-000.02,0000.32,-000.06,-000.33,-000.26,16.7,22.9,,00.0,0649.0,30.8
2021-01-19T14:28:00Z,00000200,01000000,0000.28,0000.34,-000.06,0000.02,-000.18,0000.22,0000.13,0000.39,-000.13,16.7,23.0,,00.0,0649.0,30.8
2021-01-19T14:29:00Z,00000200,01000000,0000.87,-000.03,0000.30,-000.14,0000.20,0000.12,0000.30,0000.27,0000.15,16.8,23.0,,00.0,0649.0,30.8
2021-01-19T14:30:00Z,00000200,01000000,0000.18,0000.15,-000.09,0000.42,0000.34,-000.06,-000.60,-000.04,0000.08,16.9,23.1,,00.0,0649.0,30.9
2021-01-19T14:31:00Z,00000200,01000000,0000.07,0000.10,0000.08,0000.12,0000.02,0000.01,0000.53,0000.04,-000.20,16.9,23.1,,00.0,0649.0,30.9
2021-01-19T14:32:00Z,00000200,01000000,0000.05,0000.08,0000.05,0000.21,-000.19,-000.03,0000.00,-000.39,0000.14,17.0,23.1,,00.0,0649.0,30.9
2021-01-19T14:33:00Z,00000200,01000000,0000.89,0000.09,0000.24,0000.58,-000.13,-000.13,-000.21,0000.37,0000.22,17.0,23.2,,00.0,0649.0,30.9
2021-01-19T14:34:00Z,00000200,01000000,0001.09,-000.01,-000.17,-000.27,-000.19,0000.10,0000.09,0000.09,0000.06,17.0,23.2,,00.0,0649.0,30.9
2021-01-19T14:35:00Z,00000200,01000000,0000.44,0000.01,0000.07,0000.31,-000.09,0000.04,0000.21,-000.13,-000.05,17.1,23.2,,00.0,0649.0,30.9
2021-01-19T14:36:00Z,00000200,01000000,0001.20,0000.02,0000.20,0000.17,0000.19,0000.15,-000.00,0000.31,0000.10,17.1,23.3,,00.0,0649.0,30.9
2021-01-19T14:37:00Z,00000200,01000000,0000.70,-000.03,-000.18,0000.30,0000.04,-000.14,0000.09,-000.22,-000.11,17.1,23.3,,00.0,0649.0,30.9
2021-01-19T14:38:00Z,00000200,01000000,0000.48,-000.03,0000.07,0000.27,-000.09,0000.11,-000.12,0000.07,0000.36,17.1,23.3,,00.0,0649.0,30.9
2021-01-19T14:39:00Z,00000200,01000000,0000.89,-000.39,-000.01,-000.34,0000.16,-000.14,0000.37,0000.48,-000.36,17.2,23.4,,00.0,0649.0,30.9
2021-01-19T14:40:00Z,00000200,01000000,0000.42,0000.07,0000.03,0000.01,-000.03,-000.18,-000.05,-000.27,0000.23,17.2,23.4,,00.0,0649.0,30.9
2021-01-19T14:41:00Z,00000200,01000000,0000.20,0000.40,0000.38,-000.27,-000.04,-000.10,0000.15,0000.21,0000.07,17.2,23.4,,00.0,0649.0,30.9
2021-01-19T14:42:00Z,00000200,01000000,0000.59,0000.03,0000.10,0000.34,0000.18,0000.19,-000.27,-000.18,-000.09,17.2,23.5,,00.0,0649.1,30.9
2021-01-19T14:43:00Z,00000200,01000000,0000.22,-000.16,0000.01,0000.08,0000.15,-000.13,-000.05,0000.04,-000.14,17.3,23.5,,00.0,0649.1,30.9
2021-01-19T14:44:00Z,00000200,01000000,0000.99,0000.12,0000.12,0000.22,-000.04,-000.06,-000.03,-000.59,-000.30,17.2,23.5,,00.0,0649.1,30.9
2021-01-19T14:45:00Z,00000200,01000000,0000.39,-000.02,0000.17,-000.08,0000.04,-000.27,-000.15,-000.04,-000.21,17.1,23.4,,00.0,0649.1,30.9
2021-01-19T14:46:00Z,00000200,01000000,0000.44,0000.26,0000.29,0000.31,-000.11,0000.14,-000.15,0000.43,0000.33,17.0,23.4,,00.0,0649.1,30.9
2021-01-19T14:47:00Z,00000200,01000000,0000.28,-000.14,0000.06,0000.07,-000.08,0000.15,-000.01,-000.42,-000.11,16.9,23.4,,00.0,0649.0,30.8
2021-01-19T14:48:00Z,00000200,01000000,0000.52,0000.24,-000.06,0000.40,-000.22,0000.20,-000.08,-000.13,-000.13,16.8,23.3,,00.0,0649.0,30.8
2021-01-19T14:49:00Z,00000200,01000000,0000.07,0000.07,-000.13,0000.19,0000.13,0000.08,-000.01,0000.22,-000.14,16.8,23.3,,00.0,0649.0,30.8
2021-01-19T14:50:00Z,00000200,01000000,0000.69,-000.04,0000.02,-000.04,-000.08,-000.03,0000.06,0000.07,0000.46,16.7,23.3,,00.0,0649.0,30.8
2021-01-19T14:51:00Z,00000200,01000000,0000.92,0000.21,0000.08,0000.74,-000.06,0000.04,-000.15,-000.28,-000.18,16.6,23.3,,00.0,0649.0,30.8
2021-01-19T14:52:00Z,00000200,01000000,0000.42,0000.22,-000.08,-000.01,-000.10,0000.16,0000.10,0000.17,-000.28,16.6,23.2,,00.0,0649.0,30.8
2021-01-19T14:53:00Z,00000200,01000000,0000.50,-000.28,0000.05,0000.01,0000.28,-000.06,-000.19,0000.10,-000.08,16.5,23.2,,00.0,0649.0,30.8
2021-01-19T14:54:00Z,00000200,01000000,0000.62,0000.30,-000.07,0000.13,0000.00,-000.01,0000.09,-000.53,0000.05,16.4,23.1,,00.0,0649.0,30.8
2021-01-19T14:55:00Z,00000200,01000000,0000.58,0000.23,0000.25,0000.29,-000.10,0000.01,0000.09,0000.42,0000.26,16.3,23.1,,00.0,0649.0,30.8
2021-01-19T14:56:00Z,00000200,01000000,0000.67,0000.44,0000.15,0001.02,0000.03,-000.05,-000.12,0000.10,-000.05,16.2,23.1,,00.0,0649.0,30.8
2021-01-19T14:57:00Z,00000200,41000000,,,,,,,0000.49,0000.36,0000.49,16.3,23.1,,00.0,0649.0,30.8
2021-01-19T14:58:00Z,00000200,61000000,,,,,,,-000.17,-000.52,-000.63,15.7,23.2,,00.0,0648.0,30.8
2021-01-19T14:59:00Z,00000200,21000000,,,,,,,-000.19,-000.15,0000.18,15.6,23.3,,00.0,0648.0,30.8
